sat.trackr.live / text

‹ back to catalog

STARLINK-36444

NORAD 67521 · 2026-012AE

PAYLOAD ACTIVE UNKNOWN

§ Identity

Operator
Country
US
Launch date
2026-01-18
Launch site
AFETR
Launch vehicle
Mass (kg)
RCS (m²)

Purposes: comms

External: N2YO · Heavens-Above · Gunter

§ Orbital elements

Epoch: 2026-05-24T23:49:57.518112Z

Period
94.27 min
Inclination
43.0068°
Eccentricity
0.0002009
Mean motion
15.27593154 rev/d
Perigee alt
481.6 km
Apogee alt
484.4 km
Semi-major
6,861.1 km
B*
8.4246e-4
RAAN
243.2831°
Arg perigee
266.6537°
Mean anomaly
93.4085°
Rev number
1,943

§ Raw data

STARLINK-364441 67521U 26012AE  26144.99302683  .00023002  00000+0  84246-3 0  99922 67521  43.0068 243.2831 0002009 266.6537  93.4085 15.27593154 19431

JSON: /api/v1/satellites/67521 · /tle

For live sub-satellite position, see the globe view (requires WebGL).

§ Visibility from observer

Set your observer location to see the next 7 days of passes ≥ 10°. The values pass through the URL so the page stays shareable.

No JS? Fill the form by hand. The geolocation button needs JavaScript.